This is the latest recevied weather packets stored in our database for station/object AE5HO. If no packets are shown the sender has not sent any weather packets the latest 10 day(s).
| Time | Temp. | Humidity | Pressure | Rain* | Wind** | Luminosity | Snow |
|---|---|---|---|---|---|---|---|
| 1787954403 | 38.89° C | 35% | 1015 hPa | 0 mm | - | 39 W/m² | - |
| 1787954098 | 38.33° C | 36% | 1015.1 hPa | 0 mm | - | 40 W/m² | - |
| 1787953796 | 38.33° C | 36% | 1015.1 hPa | 0 mm | - | 43 W/m² | - |
| 1787953492 | 38.33° C | 37% | 1015.4 hPa | 0 mm | - | 39 W/m² | - |
| 1787953190 | 38.33° C | 35% | 1015.2 hPa | 0 mm | - | 39 W/m² | - |
| 1787952888 | 38.33° C | 36% | 1015.4 hPa | 0 mm | - | 44 W/m² | - |
| 1787952583 | 38.33° C | 36% | 1015.4 hPa | 0 mm | - | 49 W/m² | - |
| 1787952282 | 38.33° C | 37% | 1015.4 hPa | 0 mm | - | 48 W/m² | - |
| 1787951979 | 38.33° C | 36% | 1015.6 hPa | 0 mm | - | 51 W/m² | - |
| 1787951674 | 38.33° C | 37% | 1015.6 hPa | 0 mm | - | 54 W/m² | - |
| 1787951370 | 37.78° C | 37% | 1016 hPa | 0 mm | - | 44 W/m² | - |
| 1787951065 | 37.22° C | 36% | 1015.8 hPa | 0 mm | - | 48 W/m² | - |
| 1787950760 | 37.22° C | 38% | 1016 hPa | 0 mm | - | 39 W/m² | - |
| 1787950456 | 38.33° C | 35% | 1016.2 hPa | 0 mm | - | 39 W/m² | - |
| 1787950153 | 38.89° C | 36% | 1016.1 hPa | 0 mm | - | 43 W/m² | - |
| 1787949849 | 38.33° C | 36% | 1016 hPa | 0 mm | - | 53 W/m² | - |
| 1787949549 | 38.33° C | 35% | 1016.3 hPa | 0 mm | - | 55 W/m² | - |
| 1787949249 | 38.33° C | 36% | 1016.5 hPa | 0 mm | - | 54 W/m² | - |
| 1787948944 | 37.78° C | 37% | 1016.6 hPa | 0 mm | - | 48 W/m² | - |
| 1787948640 | 38.33° C | 37% | 1016.7 hPa | 0 mm | - | 49 W/m² | - |
| 1787948335 | 38.33° C | 37% | 1016.9 hPa | 0 mm | - | 61 W/m² | - |
| 1787948034 | 37.78° C | 38% | 1016.9 hPa | 0 mm | - | 69 W/m² | - |
| 1787947734 | 37.78° C | 38% | 1017.1 hPa | 0 mm | - | 72 W/m² | - |
| 1787947434 | 37.22° C | 39% | 1016.9 hPa | 0 mm | - | 79 W/m² | - |
| 1787947133 | 37.78° C | 39% | 1017 hPa | 0 mm | - | 82 W/m² | - |
* Rain latest hour (hover to see other rain measurements)
** Current wind speed in m/s (hover to see current wind gust speed)